Location: Emporia
(38.4040°N, 96.1810°W)
Time: 02:47:34
(UTC-05:00)

Amateur Radio Satellites - All Passes

Search period start: 24 October 2014 02:17
Search period end: 25 October 2014 02:17
Location: Emporia, 38.4040°N, 96.1810°W

Satellite Date Start Highest point End Downlink Frequencies (MHz)
Time Altitude Azimuth
JAS-1B 24 Oct 02:26:04 02:32:20 38° 99° (E) 02:39:39 435.800 - 435.900 CW/SSB
Oscar 19 24 Oct 02:28:21 02:33:06 38° 98° (E) 02:37:50 437.125 CW, 437.150 USB
AO-27 24 Oct 02:44:14 02:48:13 22° 94° (E) 02:52:10 436.795 MHz FM
Oscar 16 24 Oct 03:13:43 03:18:50 75° 285° (WNW) 03:23:56 437.025 USB, Beacon 2401.1428
Sapphire 24 Oct 03:15:05 03:16:14 11° 102° (ESE) 03:17:23 437.095 MHz 1200 baud AX-25 AFSK
AO-Echo 24 Oct 03:16:24 03:21:40 61° 101° (E) 03:26:55 ?
Uribyol 2 24 Oct 03:31:32 03:36:44 67° 102° (ESE) 03:41:52 436.500 FM
PCSat 24 Oct 03:34:46 03:38:35 20° 105° (ESE) 03:42:25 145.825 MHz
ITAMSAT 1 24 Oct 03:37:18 03:42:32 71° 102° (ESE) 03:47:43 435.822 SSB
Gurwin Techsat 1B 24 Oct 03:51:40 03:56:51 51° 100° (E) 04:01:59 435.225 FM
RS-15 24 Oct 03:58:40 04:04:47 16° 0° (N) 04:10:59 29.354 - 29.394 USB, Beacon 29.352 USB
TMSAT-1 24 Oct 04:03:33 04:08:41 48° 99° (E) 04:13:46 436.925 FM
Oscar 19 24 Oct 04:08:11 04:12:13 24° 294° (WNW) 04:16:14 437.125 CW, 437.150 USB
OPAL 24 Oct 04:08:55 04:09:57 11° 57° (ENE) 04:10:59 ?
JAS-1B 24 Oct 04:16:49 04:22:53 39° 291° (WNW) 04:29:57 435.800 - 435.900 CW/SSB
AO-27 24 Oct 04:22:57 04:27:52 42° 290° (WNW) 04:32:45 436.795 MHz FM
Sapphire 24 Oct 04:53:25 04:58:49 87° 297° (WNW) 05:04:17 437.095 MHz 1200 baud AX-25 AFSK
AO-Echo 24 Oct 04:56:33 04:59:54 17° 297° (WNW) 05:03:14 ?
Uosat F 24 Oct 05:01:19 05:05:19 23° 95° (E) 05:09:17 435.120 FM
JAS-2 24 Oct 05:10:32 05:13:28 12° 86° (E) 05:16:22 435.800 - 435.900 CW/SSB, 435.910 FM
Uribyol 2 24 Oct 05:12:44 05:15:36 15° 298° (WNW) 05:18:27 436.500 FM
PCSat 24 Oct 05:16:17 05:21:33 52° 302° (WNW) 05:26:51 145.825 MHz
ITAMSAT 1 24 Oct 05:18:42 05:21:23 14° 299° (WNW) 05:24:03 435.822 SSB
AO-7 24 Oct 05:20:32 05:28:36 51° 102° (ESE) 05:36:37 29.400 - 29.500 MHz
Gurwin Techsat 1B 24 Oct 05:32:39 05:36:24 20° 296° (WNW) 05:40:08 435.225 FM
OPAL 24 Oct 05:42:52 05:48:03 86° 73° (ENE) 05:53:11 ?
TMSAT-1 24 Oct 05:44:22 05:48:13 21° 295° (WNW) 05:52:03 436.925 FM
STRAND 1 24 Oct 05:52:46 05:52:53 10° 59° (ENE) 05:52:59 ?
RS-15 24 Oct 06:13:11 06:22:32 30° 36° (NE) 06:32:08 29.354 - 29.394 USB, Beacon 29.352 USB
Uosat F 24 Oct 06:39:32 06:44:10 37° 290° (WNW) 06:48:46 435.120 FM
Sapphire 24 Oct 06:40:12 06:43:03 14° 316° (NW) 06:45:54 437.095 MHz 1200 baud AX-25 AFSK
Hamsat 24 Oct 06:45:25 06:49:18 36° 98° (E) 06:53:12 145.90 MHz
JAS-2 24 Oct 06:51:42 06:59:31 73° 102° (ESE) 07:07:17 435.800 - 435.900 CW/SSB, 435.910 FM
AO-7 24 Oct 07:13:47 07:21:04 36° 299° (WNW) 07:28:22 29.400 - 29.500 MHz
STRAND 1 24 Oct 07:26:05 07:31:13 85° 76° (ENE) 07:36:23 ?
Saudisat 1A 24 Oct 07:37:49 07:41:27 26° 113° (ESE) 07:45:07 436.775 MHz
Hamsat 24 Oct 08:22:12 08:24:57 17° 293° (WNW) 08:27:43 145.90 MHz
RS-15 24 Oct 08:25:14 08:36:29 90° 241° (WSW) 08:48:15 29.354 - 29.394 USB, Beacon 29.352 USB
SO-67 24 Oct 08:30:41 08:34:09 87° 102° (ESE) 08:37:35 435.3500 MHz FM
JAS-2 24 Oct 08:37:53 08:43:46 25° 299° (WNW) 08:49:42 435.800 - 435.900 CW/SSB, 435.910 FM
PANSAT 24 Oct 08:47:39 08:49:56 15° 170° (S) 08:52:12 not established
HO-68 24 Oct 08:51:06 08:54:03 13° 89° (E) 08:57:00 435.675 MHz FM
Saudisat 1A 24 Oct 09:17:01 09:20:54 30° 309° (NW) 09:24:49 436.775 MHz
UKube-1 24 Oct 09:54:14 09:55:18 11° 91° (E) 09:56:23 145.840 MHz, 145.915 MHz
MaSat-1 24 Oct 10:15:15 10:17:50 85° 62° (ENE) 10:20:13 437.345 MHz
PANSAT 24 Oct 10:26:47 10:29:27 18° 183° (S) 10:32:08 not established
FUNcube-1 24 Oct 10:32:41 10:33:36 11° 90° (E) 10:34:31 145.950 - 145.970 MHz USB
Oscar 11 24 Oct 10:33:55 10:37:43 30° 97° (E) 10:41:30 145.825 FM, Beacon 2401.500 USB
HO-68 24 Oct 10:35:25 10:42:40 84° 106° (ESE) 10:49:51 435.675 MHz FM
RS-15 24 Oct 10:39:48 10:47:23 21° 259° (W) 10:55:12 29.354 - 29.394 USB, Beacon 29.352 USB
ZACube-1 24 Oct 11:21:22 11:25:25 42° 98° (E) 11:29:22 437.345 MHz
UKube-1 24 Oct 11:27:32 11:31:51 60° 286° (WNW) 11:36:08 145.840 MHz, 145.915 MHz
KITSAT 1 24 Oct 11:39:32 11:45:40 24° 104° (ESE) 11:51:47 435.175 FM
FUNcube-1 24 Oct 12:06:11 12:10:22 55° 286° (WNW) 12:14:26 145.950 - 145.970 MHz USB
PANSAT 24 Oct 12:07:33 12:08:57 12° 195° (SSW) 12:10:20 not established
ISS 24 Oct 12:09:51 12:10:55 11° 127° (SE) 12:11:58 145.800 FM
Oscar 11 24 Oct 12:10:26 12:13:43 22° 292° (WNW) 12:16:59 145.825 FM, Beacon 2401.500 USB
Oscar 10/S400 24 Oct 12:18:22 12:38:40 26° 152° (SSE) 12:53:27 145.825 - 145.975 CW/USB, Beacon 145.810 USB
PCSat 24 Oct 12:23:50 12:26:48 15° 44° (NE) 12:29:46 145.825 MHz
HO-68 24 Oct 12:24:52 12:29:28 19° 303° (WNW) 12:34:05 435.675 MHz FM
Oscar 16 24 Oct 12:52:23 12:55:28 16° 63° (ENE) 12:58:33 437.025 USB, Beacon 2401.1428
ZACube-1 24 Oct 12:58:58 13:01:25 15° 295° (WNW) 13:03:51 437.345 MHz
SO-50 24 Oct 13:05:55 13:09:59 35° 114° (ESE) 13:14:09 436.795 FM
JAS-1B 24 Oct 13:12:39 13:17:08 23° 65° (ENE) 13:21:28 435.800 - 435.900 CW/SSB
Uribyol 2 24 Oct 13:13:31 13:14:25 10° 59° (ENE) 13:15:20 436.500 FM
ITAMSAT 1 24 Oct 13:18:48 13:20:17 11° 59° (ENE) 13:21:46 435.822 SSB
KITSAT 1 24 Oct 13:32:17 13:40:19 69° 302° (WNW) 13:48:24 435.175 FM
Sapphire 24 Oct 13:42:59 13:48:19 54° 58° (ENE) 13:53:36 437.095 MHz 1200 baud AX-25 AFSK
Oscar 19 24 Oct 13:43:42 13:48:37 48° 72° (ENE) 13:53:33 437.125 CW, 437.150 USB
ISS 24 Oct 13:43:52 13:47:10 69° 322° (NW) 13:50:30 145.800 FM
AO-27 24 Oct 14:00:52 14:05:18 29° 67° (ENE) 14:09:46 436.795 MHz FM
PCSat 24 Oct 14:05:32 14:10:59 90° 62° (ENE) 14:16:24 145.825 MHz
AO-Echo 24 Oct 14:27:53 14:32:41 64° 74° (ENE) 14:37:40 ?
Oscar 16 24 Oct 14:29:12 14:34:18 60° 259° (W) 14:39:25 437.025 USB, Beacon 2401.1428
AO-7 24 Oct 14:31:39 14:34:41 13° 47° (NE) 14:37:43 29.400 - 29.500 MHz
UOSAT-12 24 Oct 14:32:26 14:36:10 25° 111° (ESE) 14:39:59 437.025 FM, 437.400 FM
SO-50 24 Oct 14:46:51 14:50:36 25° 312° (NW) 14:54:26 436.795 FM
Uribyol 2 24 Oct 14:47:50 14:53:03 86° 75° (ENE) 14:58:18 436.500 FM
ITAMSAT 1 24 Oct 14:53:46 14:58:58 89° 256° (WSW) 15:04:14 435.822 SSB
JAS-1B 24 Oct 15:01:50 15:07:36 44° 260° (W) 15:13:00 435.800 - 435.900 CW/SSB
Gurwin Techsat 1B 24 Oct 15:11:14 15:16:29 69° 74° (ENE) 15:21:47 435.225 FM
ISS 24 Oct 15:22:28 15:24:23 14° 340° (NNW) 15:26:17 145.800 FM
TMSAT-1 24 Oct 15:22:45 15:27:58 65° 74° (ENE) 15:33:14 436.925 FM
Oscar 19 24 Oct 15:24:38 15:28:11 19° 267° (W) 15:31:44 437.125 CW, 437.150 USB
Sapphire 24 Oct 15:27:31 15:31:16 19° 255° (WSW) 15:35:00 437.095 MHz 1200 baud AX-25 AFSK
KITSAT 1 24 Oct 15:32:06 15:37:20 18° 325° (NW) 15:42:34 435.175 FM
AO-27 24 Oct 15:40:05 15:44:41 32° 263° (W) 15:49:21 436.795 MHz FM
PCSat 24 Oct 15:52:55 15:53:32 10° 259° (WSW) 15:54:10 145.825 MHz
Saudisat 1A 24 Oct 16:05:58 16:08:52 17° 45° (NE) 16:11:45 436.775 MHz
AO-Echo 24 Oct 16:09:52 16:11:56 13° 270° (W) 16:14:02 ?
UOSAT-12 24 Oct 16:11:52 16:16:08 36° 308° (NW) 16:20:29 437.025 FM, 437.400 FM
Uosat F 24 Oct 16:13:10 16:17:24 28° 67° (ENE) 16:21:40 435.120 FM
AO-7 24 Oct 16:17:42 16:25:46 60° 67° (ENE) 16:33:51 29.400 - 29.500 MHz
Gurwin Techsat 1B 24 Oct 16:54:26 16:56:55 13° 270° (W) 16:59:24 435.225 FM
JAS-2 24 Oct 17:03:36 17:08:22 25° 62° (ENE) 17:13:36 435.800 - 435.900 CW/SSB, 435.910 FM
TMSAT-1 24 Oct 17:05:34 17:08:19 14° 269° (W) 17:11:05 436.925 FM
Hamsat 24 Oct 17:37:47 17:41:03 22° 69° (ENE) 17:44:19 145.90 MHz
Saudisat 1A 24 Oct 17:44:26 17:48:47 57° 242° (WSW) 17:53:06 436.775 MHz
Uosat F 24 Oct 17:51:40 17:56:04 31° 263° (W) 18:00:32 435.120 FM
OPAL 24 Oct 17:55:04 17:59:04 24° 97° (E) 18:03:02 ?
AO-7 24 Oct 18:12:07 18:18:55 28° 264° (W) 18:25:47 29.400 - 29.500 MHz
ISS 24 Oct 18:38:01 18:40:08 16° 21° (NNE) 18:42:15 145.800 FM
JAS-2 24 Oct 18:47:21 18:52:57 49° 262° (W) 18:59:20 435.800 - 435.900 CW/SSB, 435.910 FM
SO-67 24 Oct 19:02:24 19:05:01 21° 71° (ENE) 19:07:39 435.3500 MHz FM
Hamsat 24 Oct 19:13:15 19:16:51 27° 264° (W) 19:20:27 145.90 MHz
OPAL 24 Oct 19:33:30 19:37:59 35° 293° (WNW) 19:42:26 ?
KITSAT 1 24 Oct 19:33:44 19:37:14 13° 28° (NNE) 19:40:44 435.175 FM
STRAND 1 24 Oct 19:38:38 19:43:14 32° 97° (E) 19:47:48 ?
ISS 24 Oct 20:13:55 20:17:16 84° 39° (NE) 20:20:35 145.800 FM
SO-67 24 Oct 20:35:27 20:37:55 18° 265° (W) 20:40:23 435.3500 MHz FM
RS-15 24 Oct 20:43:00 20:46:59 13° 97° (E) 20:50:56 29.354 - 29.394 USB, Beacon 29.352 USB
HO-68 24 Oct 21:02:01 21:08:55 54° 68° (ENE) 21:15:52 435.675 MHz FM
STRAND 1 24 Oct 21:17:56 21:22:18 28° 293° (WNW) 21:26:38 ?
KITSAT 1 24 Oct 21:27:16 21:35:00 46° 53° (NE) 21:42:41 435.175 FM
Oscar 11 24 Oct 21:28:04 21:31:17 21° 68° (ENE) 21:34:30 145.825 FM, Beacon 2401.500 USB
SO-50 24 Oct 21:38:45 21:42:47 26° 49° (NE) 21:46:50 436.795 FM
ZACube-1 24 Oct 22:16:11 22:20:12 31° 71° (ENE) 22:24:11 437.345 MHz
UKube-1 24 Oct 22:21:08 22:25:29 85° 257° (WSW) 22:29:52 145.840 MHz, 145.915 MHz
RS-15 24 Oct 22:46:17 22:57:12 71° 115° (ESE) 23:08:01 29.354 - 29.394 USB, Beacon 29.352 USB
HO-68 24 Oct 22:51:04 22:56:54 27° 265° (W) 23:02:46 435.675 MHz FM
FUNcube-1 24 Oct 23:00:16 23:04:52 87° 257° (WSW) 23:09:25 145.950 - 145.970 MHz USB
Oscar 11 24 Oct 23:03:23 23:07:15 32° 263° (W) 23:11:08 145.825 FM, Beacon 2401.500 USB
UOSAT-12 24 Oct 23:03:24 23:06:36 18° 44° (NE) 23:09:46 437.025 FM, 437.400 FM
SO-50 24 Oct 23:18:55 23:23:28 40° 245° (WSW) 23:28:01 436.795 FM
KITSAT 1 24 Oct 23:22:56 23:30:14 39° 251° (WSW) 23:37:31 435.175 FM
MaSat-1 24 Oct 23:49:58 23:53:48 34° 110° (ESE) 23:57:20 437.345 MHz
ZACube-1 24 Oct 23:52:53 23:56:34 24° 265° (W) 00:00:14 437.345 MHz
UOSAT-12 25 Oct 00:42:30 00:47:09 61° 242° (WSW) 00:51:42 437.025 FM, 437.400 FM
RS-15 25 Oct 01:00:38 01:10:23 36° 319° (NW) 01:20:13 29.354 - 29.394 USB, Beacon 29.352 USB
MaSat-1 25 Oct 01:26:35 01:29:27 18° 302° (WNW) 01:32:09 437.345 MHz
Oscar 19 25 Oct 01:57:45 02:01:18 19° 93° (E) 02:04:51 437.125 CW, 437.150 USB
